Погода в Милуоки

США     43°02′27″N   87°54′23″W
темп.,
°C
ветер,
м/с
пор.,
м/с
влажн.,
%
обл.,
%
осадки,
мм/ч
давл.,
гПа
погр.,
м
14 апреля, ср
ср1401:00+4з35705 0.0 1020415
04:00+2з36725 0.0 1020319
07:00+1з36685 0.0 1021337
10:00+5з474795 0.0 10201506
13:00+7зсз574692 0.0 10181629
16:00+7зсз6747100 0.0 10171722
19:00+5зсз575790 0.0 10181130
22:00+3з49695 0.0 1017417
15 апреля, чт
чт1501:00+2зсз5118386 0.0 1016541
04:00+3сз5108423 0.1 1016610
07:00+2сз5138594 0.1 1017803
10:00+7ссз7106113 0.0 1017973
13:00+11ссз684925 0.0 10151541
16:00+11сз684658 0.0 10141779
19:00+9сз585967 0.0 1015813
22:00+7с3568100 0.0 1016413
16 апреля, пт
пт1601:00+7с367343 0.0 1016725
04:00+3ссз37817 0.0 1016310
07:00+3ссз37815 0.0 1017364
10:00+7с456224 0.0 1017913
13:00+8св455890 0.0 10161033
16:00+9всв345835 0.0 1015859
19:00+5всв347351 0.0 1017341
22:00+4всв127981 0.0 1017161
17 апреля, сб
сб1701:00+4св2380100 0.0 1017150
04:00+3ссв3684100 0.0 1016237
07:00+4ссв3676100 0.0 1016317
10:00+6ссв3460100 0.0 1017588
13:00+9св3455100 0.0 10161125
16:00+8всв3361100 0.0 1015633
19:00+6всв3473100 0.0 1016340
22:00+5св2376100 0.0 1017174
18 апреля, вс
вс1801:00+5с1278100 0.0 1017129
04:00+4с1286100 0.0 101762
07:00+4с1386100 0.0 1017137
10:00+8ссв226899 0.0 1018779
13:00+8в3266100 0.1 1017599
16:00+10ююв135748 0.1 1015902
19:00+9ю246483 0.1 1015206
22:00+6ююз368321 0.0 1015165